This demonstration page uses our WeatherBlox Daily Observations layout. Learn more.

Left ArrowRight Arrow

40.92945, -100.16068

Hourly Observations for August 28, 2020

Temp ( °F °C ) Dew Point ( °F °C ) Humidity (%) Winds ( mph kmh ) Pressure ( in mb ) Visibility ( mi km ) Precip ( " mm )
12:15 am 00:15 Clear 73 22.8 63 17 70 70 SSE 8 13 29.71 1006 10 16.0934 0 0
12:30 am 00:30 Clear 73 22.9 62 16.8 69 69 SSE 8 13 29.7 1006 10 16.0934 0 0
12:55 am 00:55 Clear 73 23 62 16.7 68 68 SSE 9 15 29.7 1006 10 16.0934 0 0
1:15 am 01:15 Clear 73 23 62 16.7 68 68 SSE 7 11 29.69 1005 10 16.0934 0 0
1:35 am 01:35 Clear 73 23 62 16.7 68 68 S 9 15 29.69 1005 10 16.0934 0 0
1:55 am 01:55 Clear 72 22.2 62 16.7 71 71 S 7 11 29.68 1005 10 16.0934 0 0
2:15 am 02:15 Clear 73 22.6 62 16.6 69 69 S 7 11 29.69 1005 10 16.0934 0 0
2:35 am 02:35 Clear 74 23.2 62 16.6 67 67 S 6 9 29.69 1005 10 16.0934 0 0
2:55 am 02:55 Clear 74 23.3 62 16.6 66 66 SE 6 9 29.68 1005 10 16.0934 0 0
3:15 am 03:15 Clear 74 23.5 62 16.6 65 65 SSE 6 9 29.69 1006 10 16.0934 0 0
3:35 am 03:35 Clear 74 23.6 62 16.5 65 65 SSE 7 11 29.69 1005 10 16.0934 0 0
3:55 am 03:55 Clear 74 23.5 62 16.5 65 65 SSE 8 13 29.68 1005 10 16.0934 0 0
4:15 am 04:15 Clear 74 23.1 62 16.5 67 67 ESE 5 7 29.69 1005 10 16.0934 0 0
4:35 am 04:35 Clear 73 22.8 62 16.5 68 68 E 6 9 29.69 1005 10 16.0934 0 0
4:55 am 04:55 Clear 73 23 62 16.5 67 67 SE 6 9 29.69 1005 10 16.0934 0 0
5:15 am 05:15 Clear 73 22.9 61 16.3 66 66 SSE 9 15 29.69 1005 10 16.0934 0 0
5:35 am 05:35 Clear 72 22.3 61 16.2 69 69 S 9 15 29.68 1005 10 16.0934 0 0
5:55 am 05:55 Clear 69 20.8 61 16.3 76 76 E 6 9 29.72 1006 10 16.0934 0 0
6:15 am 06:15 Clear 67 19.6 62 16.6 83 83 NE 6 9 29.74 1007 10 16.0934 0 0
6:35 am 06:35 Clear 67 19.7 62 16.7 83 83 Calm 29.76 1008 10 16.0934 0 0
6:55 am 06:55 Clear 67 19.7 62 16.8 83 83 Calm 29.78 1008 10 16.0934 0 0
7:15 am 07:15 Sunny 66 19.1 62 16.7 86 86 Calm 29.78 1008 10 16.0934 0 0
7:35 am 07:35 Sunny 67 19.5 62 16.7 84 84 Calm 29.78 1008 10 16.0934 0 0
7:55 am 07:55 Sunny 67 19.6 63 17 85 85 SE 5 7 29.77 1008 10 16.0934 0 0
8:15 am 08:15 Sunny 71 21.8 63 17.1 75 75 ESE 5 7 29.75 1007 10 16.0934 0 0
8:35 am 08:35 Sunny 72 22.2 63 17.1 73 73 ESE 7 11 29.73 1007 10 16.0934 0 0
8:55 am 08:55 Sunny 73 23 63 17.3 70 70 ESE 8 13 29.73 1007 10 16.0934 0 0
9:15 am 09:15 Sunny 75 23.9 63 17.4 67 67 ESE 8 13 29.72 1006 10 16.0934 0 0
9:35 am 09:35 Sunny 76 24.7 64 17.7 65 65 ESE 7 11 29.72 1007 10 16.0934 0 0
9:55 am 09:55 Sunny 78 25.3 64 17.9 64 64 ENE 5 7 29.73 1007 10 16.0934 0 0
10:15 am 10:15 Sunny 78 25.4 65 18.1 64 64 Calm 29.74 1007 10 16.0934 0 0
10:35 am 10:35 Sunny 79 25.9 64 18 62 62 NE 3 6 29.73 1007 10 16.0934 0 0
10:55 am 10:55 Sunny 80 26.8 64 18 59 59 NNW 3 6 29.73 1007 10 16.0934 0 0
11:15 am 11:15 Sunny 81 27 65 18.3 59 59 Calm 29.72 1007 10 16.0934 0 0
11:35 am 11:35 Sunny 82 27.6 65 18.1 56 56 NNW 5 7 29.73 1007 10 16.0934 0 0
11:55 am 11:55 Sunny 84 28.7 65 18.6 54 54 NNW 7 11 29.73 1007 10 16.0934 0 0
12:15 pm 12:15 Sunny 86 30 65 18.3 49 49 N 12 19 29.72 1006 10 16.0934 0 0
12:35 pm 12:35 Sunny 87 30.8 65 18.4 48 48 NNE 12 19 29.71 1006 10 16.0934 0 0
12:55 pm 12:55 Sunny 88 31 65 18.1 46 46 ENE 14 22 29.7 1006 10 16.0934 0 0
1:15 pm 13:15 Sunny 89 31.4 64 18 45 45 NNE 15 24 29.7 1006 10 16.0934 0 0
1:35 pm 13:35 Sunny 89 31.7 64 17.7 43 43 NNE 15 24 29.7 1006 10 16.0934 0 0
1:55 pm 13:55 Sunny 90 32.1 65 18.1 43 43 NNE 15 24 29.69 1006 10 16.0934 0 0
2:15 pm 14:15 Sunny 90 32.1 66 18.9 46 46 N 16 26 29.71 1006 10 16.0934 0 0
2:35 pm 14:35 Mostly Cloudy 88 31.3 67 19.2 49 49 N 20 31 29.73 1007 10 16.0934 0 0
2:55 pm 14:55 Mostly Cloudy 87 30.6 63 17.3 45 45 N 17 28 29.73 1007 10 16.0934 0 0
3:15 pm 15:15 Partly Cloudy 87 30.5 62 16.7 43 43 NNE 14 22 29.73 1007 10 16.0934 0 0
3:35 pm 15:35 Sunny 87 30.8 62 16.9 43 43 NNE 17 28 29.72 1007 10 16.0934 0 0
3:55 pm 15:55 Sunny 87 30.5 62 16.5 43 43 NNE 15 24 29.74 1007 10 16.0934 0 0
4:15 pm 16:15 Sunny 87 30.5 63 17.2 45 45 NNE 16 26 29.75 1007 10 16.0934 0 0
4:35 pm 16:35 Sunny 85 29.6 62 16.7 46 46 NNE 15 24 29.75 1008 10 16.0934 0 0
4:55 pm 16:55 Partly Cloudy 86 29.8 62 16.6 45 45 NNE 14 22 29.75 1007 10 16.0934 0 0
5:15 pm 17:15 Sunny 85 29.5 62 16.6 46 46 NNE 13 20 29.76 1008 10 16.0934 0 0
5:35 pm 17:35 Sunny 84 28.9 61 16.2 46 46 NNE 10 17 29.78 1008 10 16.0934 0 0
5:55 pm 17:55 Sunny 83 28.1 62 16.7 50 50 NNE 8 13 29.79 1009 10 16.0934 0 0
6:15 pm 18:15 Sunny 83 28.1 62 16.4 49 49 NE 12 19 29.79 1009 10 16.0934 0 0
6:35 pm 18:35 Sunny 82 27.5 62 16.8 52 52 NE 8 13 29.81 1009 10 16.0934 0 0
6:55 pm 18:55 Sunny 81 27.2 63 17.1 54 54 N 7 11 29.82 1010 10 16.0934 0 0
7:15 pm 19:15 Sunny 80 26.5 63 17.4 57 57 N 6 9 29.85 1011 10 16.0934 0 0
7:35 pm 19:35 Sunny 78 25.8 63 17.3 59 59 N 9 15 29.86 1011 10 16.0934 0 0
7:55 pm 19:55 Partly Cloudy with Light Rain 75 23.7 66 18.7 74 74 N 7 11 29.87 1012 10 16.0934 0 0
8:15 pm 20:15 Partly Cloudy 73 23 66 18.8 77 77 N 3 6 29.89 1012 10 16.0934 0 0
8:35 pm 20:35 Clear 74 23.4 64 17.7 70 70 N 8 13 29.88 1012 10 16.0934 0 0
8:55 pm 20:55 Clear 74 23.4 62 16.5 65 65 N 10 17 29.89 1012 10 16.0934 0 0
9:15 pm 21:15 Clear 73 23 61 16.2 66 66 N 14 22 29.9 1012 10 16.0934 0 0
9:35 pm 21:35 Clear 72 22.2 61 16 68 68 N 14 22 29.91 1013 10 16.0934 0 0
9:55 pm 21:55 Clear 71 21.8 60 15.7 68 68 NNE 10 17 29.93 1013 10 16.0934 0 0
10:15 pm 22:15 Clear 71 21.5 60 15.7 70 70 NNE 7 11 29.94 1014 10 16.0934 0 0
10:35 pm 22:35 Clear 70 20.9 61 15.9 73 73 N 6 9 29.95 1014 10 16.0934 0 0
10:55 pm 22:55 Clear 68 20 61 16 78 78 N 7 11 29.96 1015 10 16.0934 0 0
11:15 pm 23:15 Clear 68 19.8 61 16 79 79 N 6 9 29.96 1015 10 16.0934 0 0
11:35 pm 23:35 Clear 67 19.6 61 16 80 80 Calm 29.97 1015 10 16.0934 0 0
11:55 pm 23:55 Clear 67 19.5 61 15.9 80 80 NW 3 6 29.98 1015 10 16.0934 0 0

Powered by AerisWeather